Weather History for Gwinn, MI

Change the Weather History Date:

Thursday, June 27, 2013

  Actual Average (KESC) Record (KESC)
Temperature  
Mean Temperature 68 °F -  
Max Temperature 77 °F 71 °F 84 °F (2005)
Min Temperature 59 °F 55 °F 44 °F (1992)
Cooling Degree Days 3    
Growing Degree Days 18 (Base 50)    
Moisture  
Dew Point 62 °F    
Average Humidity 90    
Maximum Humidity 97    
Minimum Humidity 68    
Precipitation  
Precipitation 0.00 in - - ()
Sea Level Pressure  
Sea Level Pressure 29.75 in    
Wind  
Wind Speed 5 mph (SW)    
Max Wind Speed 22 mph    
Max Gust Speed 23 mph    
Visibility 10 miles    
Events Rain , Thunderstorm    
Averages and records for this station are not official NWS values.
T = Trace of Precipitation, MM = Missing Value Source: NWS Daily Summary

Daily Weather History Graph

Daily Weather History Graph

Search for Another Location

Airport:

Trip Planner

Search our weather history database for the weather conditions in past years. The results will help you decide how hot, cold, wet, or windy it might be!

Date:

Astronomy

Jun. 27, 2013 Rise Set
Actual Time 5:59 AM EDT 9:45 PM EDT
Civil Twilight 5:20 AM EDT 10:24 PM EDT
Nautical Twilight 4:27 AM EDT 11:17 PM EDT
Astronomical Twilight 3:13 AM EDT 12:31 AM EDT
Moon No Moon Rise 11:18 AM EDT (6/27)
Length of Visible Light 17h 04m
Length of Day
15h 46m
Waning Gibbous, 76% of the Moon is Illuminated
Jun 27
Waning Gibbous
Jun 30
Last Quarter
Jul 8
New
Jul 15
First Quarter
Jul 22
Full

Hourly Weather History & Observations

Time (EDT) Temp. Dew Point Humidity Pressure Visibility Wind Dir Wind Speed Gust Speed Precip Events Conditions
12:17 AM 62.6 °F 61.2 °F 95% 29.77 in 10.0 mi Calm Calm - N/A   Mostly Cloudy
12:36 AM 62.6 °F 61.3 °F 96% 29.77 in 10.0 mi WSW 3.5 mph - N/A   Mostly Cloudy
12:57 AM 62.2 °F 61.2 °F 96% 29.78 in 10.0 mi WSW 3.5 mph - N/A   Mostly Cloudy
1:16 AM 62.8 °F 61.7 °F 96% 29.78 in 10.0 mi SSW 3.5 mph - N/A   Overcast
1:36 AM 63.1 °F 62.1 °F 96% 29.79 in 10.0 mi South 6.9 mph - N/A   Overcast
1:57 AM 63.0 °F 61.9 °F 96% 29.79 in 10.0 mi SSW 6.9 mph - N/A   Overcast
2:16 AM 63.1 °F 62.1 °F 96% 29.79 in 10.0 mi SW 6.9 mph - N/A   Overcast
2:37 AM 63.5 °F 62.2 °F 96% 29.78 in 10.0 mi SW 8.1 mph - N/A   Overcast
2:56 AM 63.5 °F 62.2 °F 96% 29.77 in 3.0 mi SW 8.1 mph - N/A   Overcast
3:16 AM 63.5 °F 62.6 °F 97% 29.77 in 7.0 mi SW 8.1 mph - N/A   Overcast
3:37 AM 63.7 °F 62.8 °F 97% 29.77 in 10.0 mi Calm Calm - N/A   Overcast
3:56 AM 63.7 °F 62.6 °F 96% 29.77 in 10.0 mi SW 4.6 mph - N/A   Overcast
4:17 AM 63.5 °F 62.4 °F 96% 29.76 in 10.0 mi WSW 5.8 mph - N/A Thunderstorm Mostly Cloudy
4:36 AM 63.5 °F 62.1 °F 95% 29.76 in 10.0 mi SW 5.8 mph - N/A   Mostly Cloudy
4:56 AM 63.1 °F 61.9 °F 96% 29.76 in 10.0 mi WSW 6.9 mph - N/A   Mostly Cloudy
5:17 AM 63.5 °F 62.1 °F 95% 29.76 in 10.0 mi SW 3.5 mph - N/A   Mostly Cloudy
5:36 AM 63.3 °F 62.1 °F 96% 29.76 in 10.0 mi SW 4.6 mph - N/A   Overcast
5:57 AM 63.3 °F 61.9 °F 95% 29.76 in 10.0 mi SW 4.6 mph - N/A   Mostly Cloudy
6:50 AM 62.6 °F 60.8 °F 94% 29.76 in 10.0 mi SW 6.9 mph - N/A   Overcast
7:50 AM 64.4 °F 62.6 °F 94% 29.76 in 10.0 mi WSW 6.9 mph - N/A   Scattered Clouds
8:50 AM 68.0 °F 64.4 °F 88% 29.76 in 10.0 mi WNW 4.6 mph - N/A   Overcast
9:50 AM 69.8 °F 64.4 °F 83% 29.76 in 10.0 mi WNW 3.5 mph - N/A   Mostly Cloudy
10:50 AM 71.6 °F 66.2 °F 83% 29.75 in 10.0 mi Calm Calm - N/A   Mostly Cloudy
11:55 AM 73.4 °F 66.2 °F 78% 29.73 in 10.0 mi SW 3.5 mph - N/A   Mostly Cloudy
12:55 PM 77.0 °F 66.2 °F 69% 29.72 in 10.0 mi SW 4.6 mph - N/A   Mostly Cloudy
1:50 PM 77.0 °F 66.2 °F 69% 29.71 in 10.0 mi SSW 9.2 mph - N/A   Mostly Cloudy
2:50 PM 71.6 °F 64.4 °F 78% 29.71 in 10.0 mi North 17.3 mph 23.0 mph N/A Thunderstorm Thunderstorm
3:20 PM 69.8 °F 59.0 °F 68% 29.71 in 10.0 mi ENE 10.4 mph - N/A   Mostly Cloudy
3:50 PM 69.8 °F 64.4 °F 83% 29.72 in 10.0 mi ENE 10.4 mph - N/A   Mostly Cloudy
4:50 PM 75.2 °F 66.2 °F 73% 29.69 in 10.0 mi East 4.6 mph - N/A   Scattered Clouds
5:50 PM 71.6 °F 66.2 °F 83% 29.70 in 10.0 mi NE 11.5 mph - N/A Thunderstorm Mostly Cloudy
6:22 PM 68.0 °F 62.6 °F 83% 29.75 in 10.0 mi SW 21.9 mph - N/A Rain , Thunderstorm Light Thunderstorms and Rain
6:54 PM 59.0 °F 57.2 °F 94% 29.74 in 10.0 mi WSW 4.6 mph - N/A Rain , Thunderstorm Light Thunderstorms and Rain
7:25 PM 60.8 °F 59.0 °F 94% 29.73 in 10.0 mi Calm Calm - N/A Thunderstorm Overcast
7:46 PM 60.8 °F 59.0 °F 94% 29.73 in 10.0 mi SE 4.6 mph - N/A Rain , Thunderstorm Thunderstorms and Rain
8:50 PM 62.6 °F 60.8 °F 94% 29.74 in 10.0 mi South 5.8 mph - N/A Rain , Thunderstorm Thunderstorms and Rain
9:16 PM 62.6 °F 60.8 °F 94% 29.72 in 10.0 mi WNW 6.9 mph - N/A Rain Light Rain
9:46 PM 62.6 °F 60.8 °F 94% 29.71 in 10.0 mi SW 5.8 mph - N/A   Mostly Cloudy
10:16 PM 62.2 °F 60.4 °F 94% 29.74 in 10.0 mi North 3.5 mph - N/A   Overcast
10:37 PM 62.4 °F 60.1 °F 92% 29.74 in 10.0 mi Calm Calm - N/A Rain Light Rain
10:56 PM 62.6 °F 60.8 °F 94% 29.72 in 10.0 mi Calm Calm - N/A   Overcast
11:17 PM 62.6 °F 61.0 °F 94% 29.71 in 10.0 mi West 6.9 mph - N/A   Overcast
11:36 PM 62.4 °F 60.3 °F 93% 29.70 in 10.0 mi West 4.6 mph - N/A   Mostly Cloudy
11:56 PM 61.2 °F 59.9 °F 96% 29.71 in 10.0 mi Calm Calm - N/A   Scattered Clouds